Gillette, WY

7:50 PM MDT on May 28, 2017 (GMT -0600)
Gillette-Campbell County

Weather History for KGCC - July, 2013

Change the Weather History Date:

Saturday, July 13, 2013

  Actual Average Record
Temperature  
Mean Temperature 77 °F 71 °F  
Max Temperature 93 °F 87 °F 104 °F (2005)
Min Temperature 61 °F 56 °F 42 °F (1943)
Degree Days  
Heating Degree Days 0 1  
Month to date heating degree days 0 14  
Since 1 June heating degree days 117 156  
Since 1 July heating degree days 0 14  
Cooling Degree Days 12 7  
Month to date cooling degree days 110 76  
Year to date cooling degree days 164 144  
Since 1 June cooling degree days 156 136  
Growing Degree Days 26 (Base 50)    
Moisture  
Dew Point 53 °F    
Average Humidity 53    
Maximum Humidity 90    
Minimum Humidity 15    
Precipitation  
Precipitation 0.00 in 0.06 in 1.41 in (1966)
Month to date precipitation 1.66 0.68  
Year to date precipitation 11.21 8.55  
Sea Level Pressure  
Sea Level Pressure 29.92 in    
Wind  
Wind Speed 10 mph (WNW)    
Max Wind Speed 32 mph    
Max Gust Speed 41 mph    
Visibility 10 miles    
Events      
T = Trace of Precipitation, MM = Missing Value Source: NWS Daily Summary

Daily Weather History Graph

Daily Weather History Graph

Search for Another Location

Airport or City:

Trip Planner

Search our weather history database for the weather conditions in past years. The results will help you decide how hot, cold, wet, or windy it might be!

Date:

Astronomy

Jul. 13, 2013 Rise Set
Actual Time 5:30 AM MDT 8:44 PM MDT
Civil Twilight 4:55 AM MDT 9:20 PM MDT
Nautical Twilight 4:09 AM MDT 10:06 PM MDT
Astronomical Twilight 3:12 AM MDT 11:02 PM MDT
Moon 11:03 AM MDT (7/13) 11:11 PM MDT (7/13)
Length of Visible Light 16h 25m
Length of Day
15h 14m
Waxing Crescent, 26% of the Moon is Illuminated
Jul 13
Waxing Crescent
Jul 15
First Quarter
Jul 22
Full
Jul 29
Last Quarter
Aug 6
New

Hourly Weather History & Observations

Time (MDT) Temp. Heat Index Dew Point Humidity Pressure Visibility Wind Dir Wind Speed Gust Speed Precip Events Conditions
12:53 AM 62.1 °F - 55.9 °F 80% 29.86 in 10.0 mi South 5.8 mph - N/A   Clear
1:53 AM 61.0 °F - 57.0 °F 87% 29.85 in 10.0 mi SSE 6.9 mph - N/A   Clear
2:53 AM 64.0 °F - 59.0 °F 84% 29.85 in 10.0 mi South 9.2 mph - N/A   Clear
3:53 AM 63.0 °F - 59.0 °F 87% 29.85 in 10.0 mi SSE 9.2 mph - N/A   Clear
4:53 AM 63.0 °F - 59.0 °F 87% 29.87 in 10.0 mi Calm Calm - N/A   Clear
5:53 AM 64.0 °F - 60.1 °F 87% 29.87 in 10.0 mi South 6.9 mph - N/A   Clear
6:53 AM 66.9 °F - 60.1 °F 79% 29.86 in 10.0 mi South 16.1 mph - N/A   Clear
7:53 AM 72.0 °F - 61.0 °F 68% 29.86 in 10.0 mi South 12.7 mph - N/A   Clear
8:53 AM 77.0 °F - 61.0 °F 58% 29.87 in 10.0 mi South 6.9 mph - N/A   Clear
9:53 AM 80.1 °F 80.6 °F 57.9 °F 47% 29.87 in 10.0 mi WSW 4.6 mph - N/A   Clear
10:53 AM 84.0 °F 82.5 °F 53.1 °F 34% 29.86 in 10.0 mi Calm Calm - N/A   Clear
11:53 AM 86.0 °F 84.5 °F 55.0 °F 35% 29.87 in 10.0 mi Variable 5.8 mph - N/A   Clear
12:53 PM 88.0 °F - 51.1 °F 28% 29.87 in 10.0 mi North 6.9 mph - N/A   Clear
1:53 PM 89.1 °F - 46.0 °F 22% 29.86 in 10.0 mi WNW 8.1 mph - N/A   Clear
2:53 PM 91.0 °F - 39.0 °F 16% 29.84 in 10.0 mi WNW 8.1 mph - N/A   Clear
3:53 PM 91.0 °F - 39.0 °F 16% 29.86 in 10.0 mi Variable 5.8 mph - N/A   Clear
4:53 PM 90.0 °F - 36.0 °F 15% 29.85 in 10.0 mi West 9.2 mph - N/A   Clear
5:53 PM 90.0 °F - 37.0 °F 15% 29.83 in 10.0 mi WNW 8.1 mph - N/A   Clear
6:53 PM 82.0 °F - 48.0 °F 30% 29.85 in 10.0 mi WNW 4.6 mph - N/A   Clear
7:53 PM 75.9 °F - 55.0 °F 48% 29.87 in 10.0 mi WNW 6.9 mph - N/A   Clear
8:53 PM 75.0 °F - 53.1 °F 46% 29.89 in 10.0 mi NW 11.5 mph - N/A   Clear
9:11 PM 77.0 °F - 55.4 °F 47% 30.08 in 10.0 mi North 25.3 mph 34.5 mph N/A   Clear
9:53 PM 73.0 °F - 55.0 °F 53% 29.98 in 10.0 mi North 26.5 mph 41.4 mph N/A   Clear
10:46 PM 69.8 °F - 55.4 °F 60% 30.17 in 10.0 mi North 27.6 mph 35.7 mph N/A   Mostly Cloudy
10:53 PM 68.0 °F - 55.9 °F 65% 30.03 in 10.0 mi North 26.5 mph 33.4 mph N/A   Mostly Cloudy
11:00 PM 66.2 °F - 55.4 °F 68% 30.18 in 10.0 mi North 26.5 mph 34.5 mph N/A   Overcast
11:43 PM 64.4 °F - 55.4 °F 73% 30.20 in 10.0 mi North 25.3 mph 32.2 mph N/A   Overcast
11:53 PM 64.0 °F - 55.0 °F 73% 30.06 in 10.0 mi North 20.7 mph 32.2 mph N/A   Overcast